CAPE
0 0 0 0 0 0 0 0 0 0 0 0 0 0 0 0 0 0 12 860 961 1010 1142 1298 1503 1617 1602 1656 1610 1825 2022 2175 2188 2090 2025 1957 1884 1701 1642 1718 1617 1657 1715 1605 1573 1279 1114 1080 1071
0 0 0 0 0 0 0 0 0 0 0 0 0 0 0 0 398 418 701 818 1136 1126 1070 1254 1518 1641 1643 1664 1750 1759 2125 2205 2230 2161 2066 1982 1886 1740 1573 1545 1682 1641 1620 1686 1326 1348 1182 1052 1068
0 0 0 0 0 0 0 0 0 0 0 0 0 0 0 0 591 520 602 1067 1228 1292 1139 1211 1524 1603 1720 1681 1784 1806 1926 2053 2063 2033 2089 2033 1937 1848 1851 1523 1662 1714 1726 1697 1498 1372 1208 1063 808
0 0 0 0 0 0 0 0 0 0 0 0 0 0 0 0 492 596 585 1279 1263 1378 1265 1218 1459 1593 1783 1745 1838 1837 1827 1777 1855 1892 1999 2045 1974 1935 1903 1655 1668 1665 1695 1717 1523 1388 1094 745 589
0 0 0 0 0 0 0 0 0 0 0 0 0 0 0 0 259 455 1399 1175 1058 1156 1229 1217 1401 1593 1812 1847 1918 1872 1767 1655 1695 1824 1862 1891 1886 1849 1758 1592 1576 1627 1621 1605 1287 1137 788 492 342
0 0 0 0 0 0 0 0 0 0 0 0 0 0 0 3 327 575 1326 1180 812 923 1057 1120 1383 1541 1763 1806 1720 1596 1593 1630 1617 1712 1707 1470 1211 1082 1180 1431 1473 1350 1479 1189 1067 808 498 326 166
0 0 0 0 0 0 0 0 0 0 0 0 0 0 0 22 151 297 760 697 656 652 744 1040 1189 1453 1682 1697 1583 1234 1176 1281 1378 1088 630 445 275 546 760 1005 1309 1221 1037 981 787 531 294 174 59
0 0 0 0 0 0 0 0 0 0 0 0 0 0 0 7 53 150 535 484 499 488 516 617 1086 1352 1425 1507 1454 693 736 659 163 85 83 6 3 114 318 539 687 775 841 776 555 307 218 90 8
0 0 0 0 0 0 0 0 0 0 0 0 0 0 0 23 103 248 568 466 460 426 395 274 361 505 566 681 848 669 482 283 155 91 34 22 5 144 142 301 316 600 369 492 170 152 133 22 0
0 0 0 0 0 0 0 0 0 0 0 0 0 2 30 93 216 381 552 642 454 473 243 215 34 1 1 186 428 412 364 130 32 1 0 0 11 19 64 96 218 220 190 152 67 120 29 1 0
0 0 0 0 0 0 0 0 0 0 0 0 0 0 36 109 228 412 484 461 576 348 41 56 74 0 0 36 102 242 78 4 5 4 0 0 11 49 84 74 118 119 93 0 0 0 0 0 0
0 0 0 0 0 0 0 0 0 0 0 0 0 0 5 142 257 367 452 344 278 155 17 12 34 33 0 1 9 3 43 3 12 20 10 4 42 72 55 84 60 62 12 0 0 0 0 0 0
0 0 0 0 0 0 0 0 0 0 0 0 0 0 0 55 293 428 427 303 111 144 5 7 1 26 0 0 1 1 3 1 1 1 0 0 7 44 92 77 23 28 0 0 0 0 0 0 0
0 0 0 0 0 0 0 0 0 0 0 0 0 0 0 70 275 160 277 317 139 66 21 32 3 0 0 0 0 0 1 1 1 0 1 0 0 0 48 49 19 0 0 0 0 0 0 0 0
0 0 0 0 0 0 0 0 0 0 0 0 0 0 0 282 379 231 229 245 175 87 17 96 47 0 0 0 1 0 0 0 0 0 1 0 0 1 86 59 15 0 0 0 0 0 0 0 0
0 0 0 0 0 0 0 0 0 0 0 0 0 0 0 290 463 259 132 96 105 20 12 31 15 0 1 1 1 2 1 1 1 1 1 1 1 101 154 75 12 0 0 0 0 0 0 0 0
0 0 0 0 0 0 0 0 0 0 0 0 0 0 0 0 145 141 32 121 38 3 0 0 0 0 1 1 0 0 1 3 6 1 2 1 1 7 92 20 0 0 0 0 0 0 0 0 0
0 0 0 0 0 0 0 0 0 0 0 0 0 0 0 0 0 50 47 77 14 0 0 0 1 0 0 0 0 2 5 9 7 16 1 3 1 24 9 1 0 0 0 0 0 0 0 0 0
0 0 0 0 0 0 0 0 0 0 0 0 0 0 0 0 0 0 62 48 0 0 0 0 1 1 0 0 1 4 2 2 9 19 16 3 8 27 0 0 0 0 0 0 0 0 0 0 0
0 0 0 0 0 0 0 0 0 0 0 0 0 0 0 0 0 0 51 41 3 8 1 0 0 0 0 0 0 0 1 0 2 1 4 2 1 0 1 0 0 0 0 0 0 0 0 0 0
0 0 0 0 0 0 0 0 0 0 0 0 0 0 0 0 0 0 15 39 3 4 6 0 0 0 0 0 0 0 0 1 1 1 9 3 2 1 0 0 0 0 0 0 0 0 0 0 0
0 0 0 0 10 0 0 1 0 0 0 0 0 0 0 0 0 0 2 22 7 2 6 0 0 0 0 0 0 0 0 1 0 0 1 3 1 1 0 0 0 0 0 0 0 0 0 0 0
0 0 0 0 0 2 2 0 0 0 0 0 0 0 0 0 0 6 8 39 11 0 0 0 0 0 0 0 0 0 0 0 0 1 1 1 0 0 0 0 0 0 0 0 6 0 0 0 0
0 4 4 0 1 6 0 0 0 0 0 0 0 0 0 0 0 0 1 15 24 1 0 0 0 0 0 0 0 0 0 0 0 0 3 1 0 2 0 0 0 0 3 15 23 5 0 0 0
0 19 0 4 12 1 0 0 0 0 0 0 0 0 0 0 0 0 0 7 2 2 4 0 0 0 0 1 0 0 0 0 0 0 0 1 1 0 3 1 3 0 0 0 6 18 10 3 8
0 11 0 1 2 0 0 0 0 0 0 0 0 0 0 0 0 0 0 0 1 2 2 0 1 0 1 1 1 0 0 0 0 0 0 5 1 1 0 3 0 1 0 0 0 0 6 5 2
9 62 2 22 3 8 0 0 0 0 0 0 0 0 0 0 0 0 0 1 4 9 2 0 1 0 0 0 0 0 0 0 0 0 0 0 0 0 0 0 0 1 1 0 2 27 19 0 0
10 4 34 38 3 3 0 0 4 0 2 0 0 0 0 0 0 0 0 0 7 10 0 1 0 0 0 0 0 0 0 0 0 0 0 0 0 0 0 0 0 0 0 0 1 3 1 5 0
15 25 8 37 54 0 0 3 16 20 20 3 1 0 0 0 0 0 0 0 7 1 1 0 1 0 0 0 0 0 0 0 0 0 0 0 0 0 0 0 0 0 0 0 0 0 0 0 0
28 20 0 71 2 2 1 0 19 25 2 9 2 4 4 3 1 0 0 0 0 0 1 2 0 0 0 0 0 1 0 0 0 0 0 0 0 0 0 0 0 0 0 0 0 0 0 0 0
CIN
0 0 0 0 0 0 0 0 0 0 0 0 0 0 0 0 0 0 -64 -411 -357 -330 -270 -199 -122 -81 -64 -48 -33 -12 -16 -21 -20 -19 -14 -7 -2 0 0 0 0 0 0 0 0 0 0 0 0
0 0 0 0 0 0 0 0 0 0 0 0 0 0 0 0 -316 -360 -346 -392 -347 -329 -288 -214 -124 -69 -42 -33 -26 -4 -2 -10 -15 -19 -14 -6 0 0 -1 -3 -1 0 0 0 0 0 0 0 0
0 0 0 0 0 0 0 0 0 0 0 0 0 0 0 0 -299 -390 -435 -382 -339 -292 -275 -219 -114 -61 -28 -13 -4 0 0 -3 -8 -6 -2 -1 -3 -1 0 -3 -2 0 0 0 0 0 0 0 0
0 0 0 0 0 0 0 0 0 0 0 0 0 0 0 0 -284 -378 -452 -381 -328 -255 -242 -207 -122 -55 -20 -8 -2 -1 -1 0 -4 -9 -9 0 -4 0 0 -1 -2 0 0 0 0 0 0 0 -2
0 0 0 0 0 0 0 0 0 0 0 0 0 0 0 0 -415 -445 -374 -384 -360 -284 -226 -199 -132 -51 -14 -7 0 -1 -1 -5 -3 0 -3 0 0 0 0 -1 -2 -1 0 0 0 0 0 0 -11
0 0 0 0 0 0 0 0 0 0 0 0 0 0 0 -224 -380 -478 -375 -348 -369 -322 -238 -200 -120 -56 -16 -10 -10 -13 -15 -7 -2 -1 0 -2 -5 -11 -3 -3 -3 -3 -3 -1 0 0 0 -2 -13
0 0 0 0 0 0 0 0 0 0 0 0 0 0 0 -358 -469 -540 -440 -408 -379 -354 -298 -203 -130 -58 -11 -1 -11 -34 -35 -22 -5 -5 -12 -21 -11 -8 -3 -3 -5 -7 -7 0 0 -1 -10 -10 -67
0 0 0 0 0 0 0 0 0 0 0 0 0 0 0 -328 -603 -586 -472 -433 -410 -389 -349 -292 -130 -65 -28 -14 -3 -68 -46 -42 -84 -98 -76 -80 -57 -14 -6 -10 -4 -3 0 0 0 -11 -10 -36 -142
0 0 0 0 0 0 0 0 0 0 0 0 0 0 0 -478 -605 -534 -454 -437 -400 -393 -367 -369 -276 -222 -156 -86 -46 -55 -51 -78 -81 -63 -101 -142 -176 -14 -5 -7 -18 -6 -25 0 -19 -10 -32 -108 -45
0 0 0 0 0 0 0 0 0 0 0 0 0 -37 -381 -464 -418 -486 -460 -400 -414 -370 -403 -377 -390 0 0 -179 -90 -91 -64 -86 -122 -18 0 0 -225 -180 -107 -40 -17 -12 -35 -10 -46 -15 -77 -52 0
0 0 0 0 0 0 0 0 0 0 0 0 0 0 -306 -357 -372 -396 -472 -471 -432 -430 -507 -449 -359 0 0 -217 -150 -78 -80 -12 -49 -107 0 -2 -167 -90 -30 -25 -25 -10 -36 0 0 -5 0 0 0
0 0 0 0 0 0 0 0 0 0 0 0 0 0 -203 -340 -390 -427 -490 -539 -523 -498 -473 -457 -391 -332 0 0 -233 -120 -100 0 -74 -77 -78 0 -61 -28 -35 -27 -22 -19 -79 0 0 0 0 0 0
0 0 0 0 0 0 0 0 0 0 0 0 0 0 0 -409 -402 -402 -478 -556 -629 -513 -310 -284 0 -335 0 0 0 0 -61 0 0 -1 0 0 -100 -77 -27 -32 -39 -38 0 0 0 0 0 0 0
0 0 0 0 0 0 0 0 0 0 0 0 0 0 0 -450 -444 -589 -608 -536 -623 -561 -549 -440 -69 0 0 0 0 0 0 0 0 0 0 0 0 0 -54 -27 -52 0 0 0 0 0 0 0 0
0 0 0 0 0 0 0 0 0 0 0 0 0 0 0 -400 -407 -539 -565 -577 -629 -560 -580 -385 -366 0 0 0 0 0 0 0 0 0 0 0 0 -1 -22 -25 -46 0 0 0 0 0 0 0 0
0 0 0 0 0 0 0 0 0 0 0 0 0 0 0 -376 -400 -487 -615 -702 -689 -656 -621 -433 -333 0 0 0 0 0 0 0 0 0 0 0 -1 -9 -1 -6 -51 0 0 0 0 0 0 0 0
0 0 0 0 0 0 0 0 0 0 0 0 0 0 0 0 -462 -493 -767 -715 -741 -538 0 0 -1 0 0 0 0 0 -1 0 -3 0 0 0 -17 -13 -1 -7 0 0 0 0 0 0 0 0 0
0 0 0 0 0 0 0 0 0 0 0 0 0 0 0 0 0 -487 -810 -743 -791 0 -54 0 0 0 0 0 0 0 0 -1 -1 0 0 0 0 0 -14 0 0 0 0 0 0 0 0 0 0
0 0 0 0 0 0 0 0 0 0 0 0 0 0 0 0 0 -1 -845 -843 0 0 0 0 0 0 0 0 0 0 -1 -3 0 0 -20 0 0 0 0 0 0 0 0 0 0 0 0 0 0
0 0 0 0 0 0 0 0 0 0 0 0 0 0 0 0 0 0 -861 -835 -811 -693 -169 0 0 0 0 -33 -13 -5 -5 0 -7 0 0 0 0 0 -1 0 0 0 0 0 0 0 0 0 0
0 0 0 0 0 0 0 0 0 0 0 0 0 0 0 0 0 -188 -860 -818 -733 -696 -663 0 0 0 0 0 0 0 0 -3 0 0 -7 0 0 0 0 0 0 0 0 0 0 0 0 0 0
0 0 0 0 -3 0 0 -1 0 0 0 0 0 0 0 0 0 -332 -811 -808 -632 -640 -683 0 0 0 0 0 0 0 0 0 0 0 -1 0 0 0 0 0 0 0 0 0 0 0 0 0 0
0 0 -1 -2 0 -1 -5 -2 0 0 0 0 0 0 0 0 0 -785 -816 -898 -781 0 0 0 0 0 0 0 0 0 0 0 0 0 -17 0 0 0 0 0 0 0 0 -5 -242 -33 0 0 0
0 -8 -17 0 -5 0 0 0 0 0 0 0 0 0 0 0 0 0 -495 -765 -717 -380 0 0 0 0 -1 0 0 0 0 0 0 0 0 0 0 0 0 0 0 0 -109 -156 -185 -252 -10 -42 0
0 -3 0 0 -1 -3 0 0 0 0 0 0 0 0 0 0 0 0 0 -771 -614 -538 -689 0 0 0 0 -1 0 0 0 0 0 0 0 -2 -9 0 0 0 0 0 0 0 -98 -149 -156 -212 -193
0 -1 0 -1 -1 0 0 0 0 0 0 0 0 0 0 0 0 0 0 0 -671 -635 -731 0 0 0 0 0 0 0 0 0 0 0 -13 -3 -1 0 0 0 -1 -3 0 0 0 0 -94 -106 -19
0 0 -3 0 0 0 0 0 0 0 0 0 0 0 0 0 0 0 0 -814 -789 -743 -200 0 0 0 0 -1 -1 0 0 0 0 0 0 -3 -12 0 0 0 0 0 -2 0 -8 -13 -22 -5 0
-2 -2 0 0 0 -2 0 0 -35 0 0 0 0 0 0 0 0 0 0 0 -673 -635 -106 -1 0 0 0 0 -1 -3 -1 0 0 0 0 0 0 0 0 0 0 0 0 0 -1 -8 -11 -20 -6
-1 0 -3 0 0 -1 0 -15 -3 -7 0 0 0 0 0 0 0 0 0 0 -629 -103 -1 -1 0 0 0 0 0 -6 0 0 0 0 0 0 0 0 0 0 0 0 0 0 0 -1 0 0 0
-14 -13 0 0 0 0 -1 0 -22 -17 -1 0 0 0 0 0 0 0 0 0 0 0 0 0 -2 0 0 0 0 -6 -1 0 0 0 0 0 0 0 0 0 0 0 0 0 0 0 0 0 0
Wind_Speed
5 5 2 5 5 6 4 7 3 6 6 3 5 5 9 4 7 6 3 8 6 7 10 11 13 14 15 15 12 13 15 19 21 21 21 21 20 19 18 17 17 18 19 21 22 21 21 22 20
5 4 5 3 6 1 7 5 6 6 6 7 1 2 1 3 2 3 4 8 8 8 10 10 14 14 15 14 14 13 15 18 20 22 23 22 20 19 18 18 16 18 19 21 22 23 24 23 21
5 4 5 5 5 7 7 7 7 3 8 4 2 2 1 3 2 6 7 9 8 7 10 8 14 13 14 14 14 12 14 15 18 20 21 21 22 21 19 18 18 19 20 20 23 24 24 22 21
3 4 5 4 8 8 7 4 3 7 6 1 1 3 4 1 3 7 7 9 8 7 7 7 12 12 14 15 15 15 12 13 16 18 22 21 23 23 20 18 19 19 19 21 22 23 21 20 22
5 3 2 2 6 7 6 8 1 7 4 7 5 5 4 4 2 4 9 9 10 8 9 9 12 13 14 16 16 15 14 12 12 16 19 18 20 19 19 19 19 19 19 20 21 22 20 19 20
4 4 2 5 5 8 7 7 2 5 3 10 6 5 6 1 5 5 8 7 6 8 5 6 12 13 13 15 16 16 16 14 13 12 12 16 16 18 11 15 16 16 18 21 21 21 21 20 19
6 4 6 5 3 5 18 8 6 4 5 6 3 8 4 2 5 7 7 7 6 6 6 5 9 10 11 10 13 14 14 15 12 9 9 12 7 14 14 13 15 13 19 21 22 20 20 20 18
5 4 3 6 6 10 6 2 2 4 6 3 3 3 5 3 9 7 6 6 5 5 6 6 9 7 7 7 9 5 6 8 21 20 21 21 16 6 8 10 13 17 19 20 22 21 20 18 17
4 1 3 6 7 7 3 1 3 2 4 3 3 3 4 7 9 7 4 2 3 3 5 6 5 5 4 4 6 10 15 20 22 20 23 21 14 10 9 11 12 21 20 19 20 19 19 18 16
4 5 8 8 6 6 2 1 4 4 3 6 4 3 3 7 6 14 11 11 10 7 6 6 5 5 5 3 4 7 12 10 11 12 14 11 16 15 14 13 15 18 20 19 20 20 18 13 7
4 6 3 4 6 5 4 6 4 4 7 10 8 2 3 5 8 8 9 10 13 7 4 7 7 6 7 5 4 4 5 6 7 10 10 7 6 8 9 6 5 8 15 8 12 13 8 9 7
4 7 6 5 7 5 7 2 8 9 11 11 8 8 5 11 14 15 13 11 9 8 7 8 7 7 7 4 3 4 7 7 6 9 11 8 7 9 8 5 7 7 7 9 7 7 7 8 8
7 6 6 6 7 7 9 12 14 13 10 14 9 9 11 11 17 12 9 6 7 8 8 12 9 7 6 6 4 4 6 7 8 8 11 8 9 9 7 7 7 8 6 8 6 7 8 6 8
4 6 7 7 10 10 14 21 6 4 10 12 8 12 11 11 18 6 8 12 11 9 10 11 10 8 7 6 7 4 4 5 6 7 9 8 7 7 7 7 8 7 8 7 8 8 8 8 8
6 8 7 5 6 8 9 16 15 10 11 13 12 11 10 14 8 15 18 15 12 9 10 12 9 9 8 7 7 5 3 4 4 5 8 10 9 9 8 8 9 8 8 10 7 6 6 7 6
4 2 3 3 2 7 10 26 10 6 9 13 11 9 9 12 16 16 11 8 9 9 12 13 11 9 8 7 6 5 5 6 5 5 6 11 10 9 10 9 10 9 9 9 8 8 7 6 7
2 5 8 7 7 7 10 20 6 6 6 9 9 8 8 10 9 11 10 10 10 11 12 14 10 9 8 7 5 4 5 5 5 7 7 11 13 13 11 10 9 10 10 9 8 5 9 7 7
4 5 4 4 5 2 9 16 9 9 6 8 9 9 9 9 16 16 10 8 9 9 9 12 9 9 7 7 5 4 3 4 4 6 9 13 10 13 7 9 10 10 10 8 8 9 3 5 7
3 4 9 3 7 6 14 13 11 8 7 9 10 10 9 12 16 7 11 11 9 8 10 13 12 10 9 7 5 4 3 2 3 5 13 13 13 13 12 9 11 10 11 12 11 7 8 3 5
5 8 10 8 10 8 8 16 16 13 9 9 12 13 11 7 7 7 12 13 13 13 13 13 12 12 9 5 3 3 3 2 1 2 6 9 12 12 13 13 11 11 10 11 11 12 5 3 7
6 7 9 12 5 10 8 21 11 8 6 7 11 13 9 12 13 11 14 16 14 16 17 14 14 12 7 8 5 3 3 3 1 4 5 7 9 10 10 10 9 9 9 10 12 11 8 7 6
5 7 10 10 5 7 3 12 4 7 13 8 11 9 11 10 10 10 13 15 18 16 15 13 12 13 11 8 7 6 4 4 2 2 3 6 9 9 10 11 9 8 7 9 10 8 8 7 10
6 2 3 3 6 6 4 5 4 4 6 9 9 10 10 8 13 16 19 19 14 15 14 11 11 12 10 10 9 5 5 3 3 4 5 4 6 10 11 8 10 9 7 8 10 7 5 4 7
0 1 5 3 2 7 12 8 3 4 9 7 6 5 7 6 11 9 8 9 13 13 12 12 12 11 10 9 11 7 8 6 5 4 4 4 3 5 13 12 10 7 8 8 7 5 6 5 5
3 2 3 2 4 5 2 7 12 10 11 6 5 7 8 9 9 12 16 16 17 17 16 14 14 14 13 9 10 9 6 7 7 7 5 6 5 3 8 16 13 11 10 6 6 6 5 5 5
5 5 4 3 2 4 4 5 4 7 11 8 5 5 6 7 6 14 18 18 19 19 18 16 15 15 11 11 9 6 6 4 4 5 5 6 4 5 5 10 12 11 8 9 6 6 4 5 5
3 6 1 3 3 3 4 6 2 17 19 18 16 14 12 11 8 11 11 16 18 19 18 16 14 14 10 8 7 6 5 5 5 5 4 4 5 5 7 7 10 12 13 11 10 7 9 7 6
3 4 2 3 3 3 5 1 5 13 18 16 17 16 17 10 1 7 10 10 10 11 10 10 10 12 10 8 6 5 6 5 5 5 4 5 4 5 7 9 9 9 11 13 14 13 10 10 8
3 3 3 2 2 2 4 1 4 10 12 14 15 16 17 14 7 10 11 10 12 11 10 8 10 11 9 7 5 6 5 6 6 6 5 5 4 5 5 7 9 10 11 11 11 11 11 12 11
6 3 5 3 3 3 1 5 4 5 11 13 15 16 15 17 14 11 12 14 14 12 11 8 8 8 8 7 6 6 6 7 7 8 9 8 7 6 7 7 8 9 10 11 12 12 11 12 13
Wind_Direction
146 118 91 45 59 64 261 258 265 279 307 213 137 142 187 151 167 209 299 181 142 139 157 161 166 163 159 155 151 146 142 139 140 142 144 144 145 146 147 144 141 137 135 136 137 137 132 130 123
129 114 46 86 99 85 263 242 231 220 259 334 118 113 117 213 166 164 132 200 162 150 166 166 168 167 163 158 156 155 153 149 148 149 150 149 147 149 152 144 140 139 141 140 141 138 135 132 123
124 55 96 121 141 200 216 213 212 239 265 181 359 48 237 224 188 188 230 156 137 151 170 169 168 166 159 156 155 160 159 156 152 151 151 155 153 153 150 147 146 145 146 146 142 138 135 129 125
127 22 36 126 205 254 208 226 175 347 347 121 134 262 285 248 178 189 136 132 135 156 165 165 167 169 161 156 159 162 169 163 162 160 155 164 158 157 152 151 148 150 149 149 144 137 133 129 126
37 57 97 212 243 263 244 271 26 305 272 272 147 245 241 314 13 140 127 137 151 161 180 179 170 172 170 163 164 163 165 172 169 166 167 172 159 157 153 153 153 154 155 147 140 135 130 127 125
54 99 113 221 236 267 268 218 226 246 236 281 184 172 233 10 149 154 127 145 150 155 174 173 180 178 177 174 170 172 172 170 172 170 169 162 156 136 164 155 156 163 154 138 137 133 131 131 129
138 114 215 191 217 268 258 178 195 201 270 282 236 172 234 229 171 144 132 137 145 158 168 165 187 187 180 184 182 184 183 174 164 151 154 127 148 133 205 186 159 154 137 141 135 134 134 134 129
115 122 190 202 172 244 261 215 151 181 261 285 180 256 247 252 146 119 120 135 142 161 169 164 187 183 181 191 181 167 163 161 121 127 123 125 96 330 189 190 163 145 146 145 133 138 139 132 127
129 211 214 203 185 238 314 85 280 276 263 318 259 207 247 114 133 112 112 91 136 160 170 156 163 152 162 176 199 186 146 144 146 145 146 139 144 177 213 218 174 151 146 141 134 138 135 131 125
168 203 219 198 216 252 290 58 300 301 318 286 294 277 44 121 213 162 171 182 193 193 181 155 156 153 156 158 169 152 151 151 152 156 166 158 167 172 184 223 186 169 143 139 135 133 130 123 125
209 237 211 217 250 261 246 269 245 273 290 239 258 302 166 166 195 233 194 189 191 185 171 171 164 151 165 162 164 136 143 148 159 166 176 188 172 166 175 205 177 180 137 130 129 130 136 136 132
235 226 222 229 239 263 260 231 263 230 246 260 245 257 190 194 204 211 207 200 169 175 174 171 162 161 158 162 156 141 148 159 172 178 176 175 171 178 176 168 166 160 146 134 130 137 134 139 130
209 246 234 220 256 254 273 253 252 262 261 271 266 266 233 206 213 217 230 191 165 183 162 183 160 165 158 162 151 153 154 165 170 174 176 178 176 174 169 164 148 148 147 137 122 127 134 127 130
232 236 248 239 248 255 256 261 216 215 255 277 254 255 247 213 211 189 188 209 189 183 170 174 171 166 156 166 157 169 158 152 159 176 177 181 176 178 168 155 152 141 152 141 132 143 145 143 146
264 299 288 230 206 232 247 263 245 240 251 266 265 252 247 224 191 203 217 206 183 183 159 173 166 156 170 170 154 161 175 158 166 178 179 183 183 186 177 162 152 151 152 138 120 135 140 139 151
329 272 320 345 251 241 180 259 276 258 243 254 271 268 248 233 215 217 210 213 160 155 160 177 178 160 164 157 155 154 169 185 184 197 198 195 199 189 177 169 158 154 151 148 146 150 141 146 138
324 259 279 301 234 241 196 272 253 270 224 254 263 272 255 241 233 227 200 187 167 164 156 174 173 162 157 144 140 152 167 184 181 183 195 201 200 202 176 165 147 156 147 156 152 146 147 148 146
234 273 274 261 303 5 285 283 284 272 266 255 271 271 253 247 235 222 189 167 155 151 153 168 165 151 144 151 146 141 166 193 197 204 197 195 197 192 184 140 140 152 145 146 154 154 100 142 149
253 273 274 261 278 292 286 277 280 281 270 287 283 265 245 231 244 191 171 154 150 147 154 168 166 158 164 157 145 154 165 170 212 229 211 186 196 193 155 139 148 161 149 161 158 144 138 86 129
240 265 275 281 248 260 262 278 283 264 250 237 258 262 249 227 206 170 169 166 172 167 175 174 170 170 172 167 125 143 152 149 141 99 118 127 126 138 140 144 150 163 143 152 162 160 135 112 165
235 248 268 268 271 273 275 274 262 257 245 255 261 241 254 228 208 180 180 179 166 177 185 178 171 170 158 131 120 106 105 97 118 125 133 140 133 129 117 130 150 154 156 160 171 165 158 152 198
247 225 252 277 282 265 42 290 219 271 288 269 263 260 254 215 197 182 184 179 181 180 178 172 163 171 175 155 162 158 169 143 159 105 124 134 141 142 141 141 148 163 150 159 178 181 177 151 176
249 243 253 245 261 296 181 273 285 246 258 258 253 258 265 215 187 185 198 183 173 166 170 156 157 171 167 175 181 160 144 129 115 109 116 126 143 156 148 153 157 163 152 164 170 166 161 143 170
127 240 250 233 211 258 226 198 255 236 231 235 223 244 279 232 194 184 156 153 165 169 167 160 168 177 172 176 184 165 159 145 133 131 150 145 143 162 172 164 155 150 141 158 162 156 166 165 148
171 208 295 238 205 250 295 185 258 273 269 250 316 329 299 253 166 162 162 169 176 175 174 170 175 184 182 178 177 184 171 154 152 156 162 165 167 154 194 166 166 166 174 148 147 156 159 170 159
205 187 207 256 249 303 243 213 247 29 22 4 346 311 5 316 219 186 180 174 177 177 176 170 175 177 171 176 169 165 162 152 151 163 156 169 168 168 148 175 163 174 146 160 162 158 157 173 196
176 213 242 328 253 248 244 276 20 10 5 357 1 357 345 338 276 209 186 175 171 175 174 174 166 174 164 170 164 159 161 152 162 157 155 156 154 153 157 156 159 167 182 185 189 200 207 191 192
161 162 159 174 265 253 278 324 353 5 3 356 357 359 351 321 353 113 127 147 147 152 148 164 158 166 160 164 172 158 170 158 148 147 165 154 156 159 150 161 170 174 180 187 192 206 211 207 210
162 212 220 274 227 264 318 290 65 9 10 359 2 8 10 15 56 94 101 117 137 123 129 143 156 148 150 156 148 152 160 162 152 163 173 177 161 173 167 173 171 177 183 184 192 201 200 206 214
177 159 159 254 171 232 282 271 75 4 353 13 25 17 20 26 37 66 102 127 129 122 119 128 125 147 155 152 160 167 163 173 173 182 182 179 185 185 186 183 185 187 188 190 199 206 212 211 215